EW5627 Weather Reports


time (UTC)temp
C
wind
direction
speed
KPH
gust
KPH
rain 1hr
cm
rain 24hr
cm
rain mn
cm
humidity
%
barometer
mb
20260503033021 8 346 0.0 3.2 0.00 0.08 0.08 53 1010.0
20260503031519 8 5 0.0 0.0 0.00 0.08 0.08 52 1009.9
20260503030017 9 324 0.0 1.6 0.00 0.08 0.08 51 1010.0
20260503024519 9 15 0.0 0.0 0.00 0.08 0.08 52 1009.8
20260503023018 9 18 0.0 0.0 0.00 0.08 0.08 52 1010.0
20260503021519 9 19 0.0 0.0 0.00 0.08 0.08 51 1010.3
20260503020015 10 19 0.0 0.0 0.00 0.08 0.08 52 1010.3
20260503014514 10 19 0.0 1.6 0.00 0.08 0.08 52 1010.3
20260503013014 10 54 0.0 0.0 0.00 0.08 0.08 50 1010.3
20260503011525 10 61 0.0 0.0 0.00 0.08 0.08 48 1010.3
20260503010013 11 48 0.0 0.0 0.00 0.08 0.08 45 1010.1
20260503004513 11 18 0.0 3.2 0.00 0.08 0.08 43 1009.9
20260503003112 11 5 0.0 0.0 0.00 0.08 0.08 42 1009.9
20260503001613 11 5 0.0 0.0 0.00 0.08 0.08 43 1009.8
20260503000011 11 298 0.0 3.2 0.00 0.08 0.08 42 1009.7
20260502234527 12 293 0.0 0.0 0.00 0.08 0.08 41 1009.6
20260502233010 12 263 0.0 0.0 0.00 0.08 0.08 41 1009.4
20260502231509 12 231 0.0 0.0 0.00 0.08 0.08 40 1009.2
20260502230007 13 240 0.0 0.0 0.00 0.08 0.08 42 1009.1
20260502224511 13 238 0.0 0.0 0.00 0.08 0.08 43 1009.0
20260502223006 13 246 0.0 0.0 0.00 0.08 0.08 43 1009.0
20260502221506 13 242 0.0 0.0 0.00 0.08 0.08 41 1009.0
20260502220017 15 282 0.0 0.0 0.00 0.08 0.08 40 1008.9
20260502214506 16 249 0.0 0.0 0.00 0.08 0.08 37 1008.9
20260502213010 16 237 0.0 0.0 0.00 0.08 0.08 36 1008.7
20260502211503 16 245 0.0 0.0 0.00 0.08 0.08 38 1008.7
20260502210111 16 232 0.0 0.0 0.00 0.08 0.08 38 1008.5
20260502204608 16 47 0.0 0.0 0.00 0.08 0.08 39 1008.6
20260502203105 15 355 0.0 0.0 0.00 0.08 0.08 42 1008.7
20260502201551 15 250 0.0 0.0 0.00 0.08 0.08 44 1009.0
20260502200048 15 207 0.0 0.0 0.00 0.08 0.08 49 1008.9
20260502194552 14 13 0.0 0.0 0.00 0.08 0.08 51 1009.1
20260502193043 14 294 0.0 0.0 0.00 0.08 0.08 59 1009.4
20260502191543 13 88 0.0 0.0 0.00 0.08 0.08 62 1009.7
20260502190040 13 206 0.0 0.0 0.00 0.08 0.08 60 1009.9
20260502184541 13 36 0.0 0.0 0.00 0.08 0.08 59 1010.0
20260502183043 13 108 0.0 0.0 0.00 0.08 0.08 62 1010.1
20260502181538 13 14 0.0 0.0 0.00 0.08 0.08 64 1010.1
20260502163045 13 248 0.0 0.0 0.00 0.08 0.08 65 1010.6
20260502161528 13 246 0.0 0.0 0.00 0.08 0.08 68 1010.7
20260502151521 13 250 0.0 0.0 0.00 0.08 0.08 77 1010.8
20260502130108 9 150 0.0 0.0 0.00 0.08 0.08 90 1011.3
20260502123105 9 150 0.0 0.0 0.00 0.08 0.08 92 1011.1
20260502121559 9 150 0.0 0.0 0.00 0.08 0.08 92 1010.9
20260502114552 8 149 0.0 0.0 0.00 0.08 0.08 92 1010.9
20260502113052 8 149 0.0 0.0 0.00 0.08 0.08 92 1011.0
20260502111549 8 149 0.0 0.0 0.00 0.08 0.08 91 1010.6
20260502110046 8 149 0.0 0.0 0.03 0.08 0.08 91 1010.6
20260502104544 8 149 0.0 0.0 0.03 0.08 0.08 91 1010.5
20260502103044 8 149 0.0 0.0 0.08 0.08 0.08 91 1010.5
20260502101539 8 149 0.0 0.0 0.08 0.08 0.08 90 1010.5
20260502071521 9 165 0.0 0.0 0.00 0.00 0.00 86 1010.7
20260502070020 9 165 0.0 0.0 0.00 0.00 0.00 85 1010.2
20260502064533 9 165 0.0 0.0 0.00 0.00 0.00 86 1010.2
20260502063022 9 165 0.0 0.0 0.00 0.00 0.00 86 1010.3
20260502061517 9 165 0.0 0.0 0.00 0.00 0.00 86 1010.6
20260502060015 9 165 0.0 0.0 0.00 0.00 0.00 86 1010.6
20260502054515 9 165 0.0 0.0 0.00 0.00 0.00 85 1010.6
20260502053013 9 165 0.0 0.0 0.00 0.00 0.00 85 1010.7
20260502051517 9 165 0.0 0.0 0.00 0.00 0.00 85 1010.7
20260502050014 9 165 0.0 0.0 0.00 0.00 0.00 85 1010.6
20260502044511 9 165 0.0 0.0 0.00 0.00 0.00 85 1010.7
20260502043008 9 161 0.0 0.0 0.00 0.00 0.00 84 1010.8
20260502041507 9 162 0.0 0.0 0.00 0.00 0.00 84 1010.8
20260502040003 9 189 0.0 0.0 0.00 0.00 0.00 82 1010.8
20260502034601 9 193 0.0 0.0 0.00 0.00 0.00 82 1010.8